Terminal Aerodrome Forecast
Issued by NWS

Home | Current Version | Previous Version | Text Only | Print | Product List | Glossary On
Versions: 1 2 3 4 5 6 7 8 9 10 11 12 13 14 15 16 17 18 19 20 21 22 23 24 25 26 27 28 29 30
000
FTUS41 KBOX 231722
TAFACK
TAF
KACK 231722Z 2318/2418 01012KT P6SM SCT025 BKN050
      TEMPO 2318/2321 6SM -SHRA BKN025
     FM232100 08007KT P6SM BKN025
     FM240500 36010G25KT P6SM OVC015
     FM241100 34018G28KT P6SM OVC015
     FM241400 33019KT P6SM OVC025=

USA.gov is the U.S. government's official web portal to all federal, state and local government web resources and services.